Location: Bushrod
(6.3500°N, 10.7833°W)
Time: 09:00:23
(UTC+00:00)

Skynet4D Del rocket - Pass Details

Date: 17 September 2019
Orbit: 763 x 1291 km, 26.9° (Epoch: 14 October)

Event Time Altitude Azimuth Distance (km) Brightness Sun altitude
Rises 20:17:05 0° 294° (WNW) 3,850 8.3 -24.4°
Reaches altitude 10° 20:19:42 10° 293° (WNW) 2,968 7.5 -25.1°
Maximum altitude 20:27:09 74° 209° (SSW) 1,248 4.5 -26.9°
Enters shadow 20:29:34 49° 138° (SE) 1,550 4.7 -27.5°
